Volver al catálogo

STARLINK-37890

ActivoComunicacionesVLEO
NORAD 69533·PAYLOAD·🇺🇸 United States

Lanzado Jun 12, 2026 desde Cape Canaveral Space Force Station

Loading…

Próximos Pases (próximas 24 horas)

TLE

ActualizadoSource: CelesTrak SupGP

Época: Sep 14, 2026, 23:04 UTC

1 69533C 26133AB  26257.96159722  .00034024  00000+0  10043-2 0  2573
2 69533  53.1573 255.9196 0001215  71.8131 124.2148 15.34403825    17

Sigue STARLINK-37890 en tiempo real con AllMySat

Download on the App Store